User: anonymous   Login
Location: Unspecified
(0.0000°N, 0.0000°E)
Time: 17:27:36
(UTC+00:00)
Language:

LIBERTAD 1 - Orbit

View from above orbital plane
View from above orbital plane
View from above satellite
View from above satellite

Ground track
Ground track

The orbit is defined by the following mean orbital elements,

1 31128U          26105.86975062 +.00000000 +00000-0 +11720-3 0 00009
2 31128  98.4343  74.3519 0083746 274.9451  84.2193 14.63646272    05
Epoch (UTC): 15 April 2026 20:52:26
Eccentricity: 0.0083746
inclination: 98.4343°
perigee height: 622 km
apogee height: 741 km
right ascension of ascending node: 74.3519°
argument of perigee: 274.9451°
revolutions per day: 14.63646272
mean anomaly at epoch: 84.2193°

The dashed part of the orbit path shows where the satellite is in the earth's shadow,  

DLR